Main page
Satellite images Climate Cyclones Lightning AirportsFAQ Languages Contact Newsletter About
Weather : Europe Africa North America South America Asia Australia-Oceania Others

, Loei, Loei Airport

48353

latitude: , longitude: Thailand, elevation: 17-27N m


METAR: VTUL 210900Z VRB02KT 9999 SCT033 33/24 Q1004